Weather History for Olivia, MN

Change the Weather History Date:

Monday, December 31, 2012

  Actual Average (KRWF) Record (KRWF)
Temperature  
Mean Temperature 8 °F -  
Max Temperature 21 °F 19 °F 69 °F (1996)
Min Temperature -7 °F 2 °F -24 °F (1973)
Degree Days  
Heating Degree Days 56    
Moisture  
Dew Point 1 °F    
Average Humidity 73    
Maximum Humidity 86    
Minimum Humidity 66    
Precipitation  
Precipitation 0.00 in - - ()
Sea Level Pressure  
Sea Level Pressure 30.18 in    
Wind  
Wind Speed 13 mph (NW)    
Max Wind Speed 21 mph    
Max Gust Speed 28 mph    
Visibility 10 miles    
Events Snow    
Averages and records for this station are not official NWS values.
T = Trace of Precipitation, MM = Missing Value Source: NWS Daily Summary

Daily Weather History Graph

Daily Weather History Graph

Search for Another Location

Airport:

Trip Planner

Search our weather history database for the weather conditions in past years. The results will help you decide how hot, cold, wet, or windy it might be!

Date:

Astronomy

Dec. 31, 2012 Rise Set
Actual Time 7:57 AM CST 4:49 PM CST
Civil Twilight 7:24 AM CST 5:22 PM CST
Nautical Twilight 6:47 AM CST 5:59 PM CST
Astronomical Twilight 6:11 AM CST 6:35 PM CST
Moon 8:30 PM CST (12/31) 9:31 AM CST (12/31)
Length of Visible Light 9h 58m
Length of Day
8h 51m
Waning Gibbous, 90% of the Moon is Illuminated
Dec 31
Waning Gibbous
Jan 4
Last Quarter
Jan 11
New
Jan 18
First Quarter
Jan 26
Full

Hourly Weather History & Observations

Time (CST) Temp. Windchill Dew Point Humidity Pressure Visibility Wind Dir Wind Speed Gust Speed Precip Events Conditions
12:11 AM 21.2 °F 6.4 °F 17.6 °F 86% 30.04 in 7.0 mi NW 18.4 mph 24.2 mph N/A   Overcast
12:31 AM 19.4 °F 3.2 °F 14.0 °F 80% 30.05 in 5.0 mi NW 20.7 mph - N/A   Overcast
12:51 AM 17.6 °F 0.9 °F 14.0 °F 86% 30.04 in 7.0 mi NW 20.7 mph - N/A   Overcast
1:11 AM 17.6 °F 0.9 °F 14.0 °F 86% 30.05 in 7.0 mi NW 20.7 mph 27.6 mph N/A   Mostly Cloudy
1:30 AM 17.6 °F 1.3 °F 10.4 °F 73% 30.06 in 10.0 mi NNW 19.6 mph - N/A   Scattered Clouds
1:51 AM 17.6 °F 2.7 °F 10.4 °F 73% 30.06 in 10.0 mi NNW 16.1 mph 21.9 mph N/A   Mostly Cloudy
2:10 AM 17.6 °F 6.4 °F 12.2 °F 79% 30.09 in 10.0 mi NW 9.2 mph - N/A   Overcast
2:31 AM 17.6 °F 7.3 °F 12.2 °F 79% 30.11 in 10.0 mi NW 8.1 mph - N/A   Overcast
2:51 AM 17.6 °F 5.7 °F 10.4 °F 73% 30.12 in 10.0 mi NW 10.4 mph - N/A   Overcast
3:11 AM 17.6 °F 3.7 °F 10.4 °F 73% 30.12 in 10.0 mi NW 13.8 mph - N/A   Overcast
3:31 AM 17.6 °F 4.3 °F 12.2 °F 79% 30.12 in 10.0 mi NW 12.7 mph - N/A Snow Light Snow
3:51 AM 17.6 °F 2.7 °F 12.2 °F 79% 30.12 in 10.0 mi NW 16.1 mph - N/A Snow Light Snow
4:10 AM 17.6 °F 2.7 °F 12.2 °F 79% 30.12 in 10.0 mi NW 16.1 mph 24.2 mph N/A Snow Light Snow
4:31 AM 17.6 °F 4.3 °F 12.2 °F 79% 30.13 in 10.0 mi NW 12.7 mph - N/A Snow Light Snow
4:51 AM 17.6 °F 2.2 °F 10.4 °F 73% 30.12 in 10.0 mi NNW 17.3 mph 23.0 mph N/A   Overcast
5:11 AM 15.8 °F -0.2 °F 8.6 °F 73% 30.11 in 10.0 mi NNW 17.3 mph - N/A   Scattered Clouds
5:31 AM 15.8 °F -0.6 °F 8.6 °F 73% 30.13 in 10.0 mi NNW 18.4 mph - N/A   Clear
5:51 AM 15.8 °F -0.2 °F 8.6 °F 73% 30.15 in 10.0 mi NNW 17.3 mph - N/A   Clear
6:11 AM 14.0 °F -3.4 °F 8.6 °F 79% 30.16 in 10.0 mi NNW 19.6 mph 26.5 mph N/A   Clear
6:30 AM 14.0 °F -2.5 °F 6.8 °F 73% 30.18 in 10.0 mi NNW 17.3 mph 23.0 mph N/A   Scattered Clouds
6:51 AM 12.2 °F -4.3 °F 5.0 °F 73% 30.17 in 10.0 mi NNW 16.1 mph - N/A   Clear
7:11 AM 12.2 °F -5.3 °F 5.0 °F 73% 30.16 in 10.0 mi NNW 18.4 mph - N/A   Clear
7:31 AM 12.2 °F -4.3 °F 5.0 °F 73% 30.16 in 10.0 mi NNW 16.1 mph - N/A   Clear
7:51 AM 10.4 °F -4.1 °F 3.2 °F 73% 30.17 in 10.0 mi NNW 11.5 mph - N/A   Clear
8:11 AM 10.4 °F -4.1 °F 3.2 °F 73% 30.18 in 10.0 mi NNW 11.5 mph - N/A   Clear
8:31 AM 10.4 °F -4.8 °F 1.4 °F 67% 30.18 in 10.0 mi NW 12.7 mph - N/A   Clear
8:51 AM 8.6 °F -5.5 °F -0.4 °F 67% 30.19 in 10.0 mi NW 10.4 mph - N/A   Clear
9:11 AM 8.6 °F -4.7 °F -0.4 °F 67% 30.20 in 10.0 mi NW 9.2 mph - N/A   Clear
9:31 AM 8.6 °F -4.7 °F -0.4 °F 67% 30.21 in 10.0 mi NW 9.2 mph - N/A   Clear
9:51 AM 8.6 °F -4.7 °F -0.4 °F 67% 30.22 in 10.0 mi NW 9.2 mph - N/A   Clear
10:11 AM 8.6 °F -4.7 °F -0.4 °F 67% 30.22 in 10.0 mi NW 9.2 mph - N/A   Clear
10:30 AM 8.6 °F -4.7 °F -0.4 °F 67% 30.22 in 10.0 mi NW 9.2 mph - N/A   Clear
10:51 AM 8.6 °F -5.5 °F -0.4 °F 67% 30.22 in 10.0 mi NW 10.4 mph - N/A   Clear
11:11 AM 8.6 °F -7.7 °F -0.4 °F 67% 30.21 in 10.0 mi NNW 13.8 mph - N/A   Clear
11:31 AM 8.6 °F -5.5 °F -0.4 °F 67% 30.21 in 10.0 mi NNW 10.4 mph - N/A   Clear
11:51 AM 8.6 °F -5.5 °F -0.4 °F 67% 30.20 in 10.0 mi NNW 10.4 mph - N/A   Clear
12:11 PM 8.6 °F -4.7 °F -0.4 °F 67% 30.20 in 10.0 mi NNW 9.2 mph - N/A   Clear
12:31 PM 8.6 °F -5.5 °F -0.4 °F 67% 30.19 in 10.0 mi NNW 10.4 mph - N/A   Clear
12:51 PM 8.6 °F -5.5 °F -0.4 °F 67% 30.19 in 10.0 mi NW 10.4 mph - N/A   Clear
1:11 PM 8.6 °F -3.7 °F -0.4 °F 67% 30.20 in 10.0 mi NW 8.1 mph - N/A   Clear
1:31 PM 8.6 °F -5.5 °F -0.4 °F 67% 30.19 in 10.0 mi NW 10.4 mph - N/A   Clear
1:50 PM 8.6 °F -3.7 °F -0.4 °F 67% 30.20 in 10.0 mi NW 8.1 mph - N/A   Clear
2:11 PM 8.6 °F -3.7 °F -0.4 °F 67% 30.20 in 10.0 mi NW 8.1 mph - N/A   Clear
2:30 PM 8.6 °F -4.7 °F -0.4 °F 67% 30.21 in 10.0 mi NW 9.2 mph - N/A   Clear
2:51 PM 8.6 °F -4.7 °F -0.4 °F 67% 30.21 in 10.0 mi NW 9.2 mph - N/A   Clear
3:11 PM 8.6 °F -1.3 °F -0.4 °F 67% 30.21 in 10.0 mi WNW 5.8 mph - N/A   Clear
3:31 PM 8.6 °F -4.7 °F -0.4 °F 67% 30.21 in 10.0 mi NW 9.2 mph - N/A   Clear
3:51 PM 5.0 °F -9.1 °F -0.4 °F 78% 30.22 in 10.0 mi NW 9.2 mph - N/A   Clear
4:10 PM 5.0 °F -5.6 °F -2.2 °F 72% 30.22 in 10.0 mi NW 5.8 mph - N/A   Clear
4:31 PM 5.0 °F -5.6 °F -4.0 °F 66% 30.22 in 10.0 mi NW 5.8 mph - N/A   Clear
4:51 PM 3.2 °F -10.3 °F -4.0 °F 72% 30.22 in 10.0 mi NW 8.1 mph - N/A   Clear
5:11 PM 3.2 °F -11.3 °F -4.0 °F 72% 30.22 in 10.0 mi NW 9.2 mph - N/A   Clear
5:31 PM 1.4 °F -11.3 °F -5.8 °F 72% 30.22 in 10.0 mi NW 6.9 mph - N/A   Clear
5:50 PM 1.4 °F -12.5 °F -5.8 °F 72% 30.22 in 10.0 mi NW 8.1 mph - N/A   Clear
5:59 PM 1.4 °F -11.3 °F -5.8 °F 72% 30.23 in 10.0 mi NW 6.9 mph - N/A   Clear
6:31 PM 1.4 °F - -5.8 °F 72% 30.23 in 10.0 mi Calm Calm - N/A   Clear
6:51 PM -0.4 °F - -5.8 °F 78% 30.23 in 10.0 mi Calm Calm - N/A   Clear
7:11 PM -0.4 °F -13.4 °F -5.8 °F 78% 30.24 in 10.0 mi NW 6.9 mph - N/A   Clear
7:31 PM -2.2 °F -15.6 °F -7.6 °F 78% 30.24 in 10.0 mi NNW 6.9 mph - N/A   Clear
7:51 PM -2.2 °F - -7.6 °F 78% 30.24 in 10.0 mi Calm Calm - N/A   Clear
8:31 PM -2.2 °F -10.4 °F -7.6 °F 78% 30.23 in 10.0 mi NW 3.5 mph - N/A   Clear
9:11 PM -4.0 °F - -7.6 °F 85% 30.23 in 10.0 mi Calm Calm - N/A   Clear
9:30 PM -4.0 °F - -9.4 °F 78% 30.23 in 10.0 mi Calm Calm - N/A   Clear
9:51 PM -4.0 °F -16.3 °F -9.4 °F 78% 30.23 in 10.0 mi WNW 5.8 mph - N/A   Clear
10:11 PM -4.0 °F - -9.4 °F 78% 30.24 in 10.0 mi Calm Calm - N/A   Clear
10:31 PM -4.0 °F -14.6 °F -9.4 °F 78% 30.25 in 10.0 mi WNW 4.6 mph - N/A   Clear
11:11 PM -4.0 °F - -9.4 °F 78% 30.26 in 10.0 mi Calm Calm - N/A   Clear
11:31 PM -4.0 °F - -9.4 °F 78% 30.26 in 10.0 mi Calm Calm - N/A   Clear
11:51 PM -7.6 °F - -13.0 °F 77% 30.26 in 10.0 mi Calm Calm - N/A   Clear